Location: Newark
(34.6283°N, 36.0776°E)
Time: 12:53:13
(UTC+00:00)

S-56A Canister/Altair - Pass Details

Date: 25 October 2019
Orbit: 634 x 2499 km, 38.9° (Epoch: 22 November)

Event Time Altitude Azimuth Distance (km) Brightness Sun altitude
Rises 22:55:53 0° 257° (WSW) 2,986 - -58.8°
Reaches altitude 10° 22:57:59 10° 259° (WSW) 2,156 - -58.4°
Maximum altitude 23:02:51 76° 345° (NNW) 863 - -57.6°
Drops below altitude 10° 23:09:42 10° 71° (ENE) 2,984 - -56.5°
Exits shadow 23:10:20 - 72° (ENE) 3,225 11.1 -56.4°
Sets 23:13:03 0° 73° (ENE) 4,243 11.8 -55.9°
